Location: Argonnex
(45.9500°N, 6.1333°E)
Time: 09:45:22
(UTC+00:00)

Cosmos 2266 Rocket - Pass Details

Date: 29 September 2023
Orbit: 933 x 1008 km, 82.9° (Epoch: 10 December)

Event Time Altitude Azimuth Distance (km) Brightness Sun altitude
Exits shadow 03:37:03 36° 246° (WSW) 1,533 4.5 -20.3°
Maximum altitude 03:38:53 44° 286° (WNW) 1,349 4.3 -20.0°
Drops below altitude 10° 03:44:59 10° 357° (N) 2,789 6.6 -19.0°
Sets 03:47:42 0° 4° (N) 3,748 7.3 -18.5°
